FW2547 Weather Reports


Display with metric or nautical units.
time (UTC)temp
F
wind
direction
speed
MPH
gust
MPH
rain 1hr
in
rain 24hr
in
rain mn
in
humidity
%
barometer
mb
20260905200003 91 236 4.0 11.0 0.00 0.00 0.00 36 1007.5
20260905194600 90 311 3.0 13.0 0.00 0.00 0.00 37 1007.8
20260905193056 89 340 7.0 14.0 0.00 0.00 0.00 39 1008.1
20260905191554 89 323 6.0 12.0 0.00 0.00 0.00 39 1008.5
20260905190055 89 305 10.0 15.0 0.00 0.00 0.00 40 1009.1
20260905184551 88 290 5.0 12.0 0.00 0.00 0.00 41 1009.1
20260905183045 87 284 10.0 15.0 0.00 0.00 0.00 44 1009.5
20260905181542 87 257 8.0 13.0 0.00 0.00 0.00 44 1009.8
20260905180053 86 307 8.0 16.0 0.00 0.00 0.00 45 1010.0
20260905174533 85 260 7.0 14.0 0.00 0.00 0.00 47 1010.1
20260905173029 85 262 9.0 15.0 0.00 0.00 0.00 47 1010.1
20260905171539 84 254 8.0 13.0 0.00 0.00 0.00 49 1010.2
20260905170021 83 342 8.0 14.0 0.00 0.00 0.00 51 1010.3
20260905164518 82 267 10.0 16.0 0.00 0.00 0.00 53 1010.3
20260905163013 81 288 10.0 18.0 0.00 0.00 0.00 55 1010.3
20260905161521 80 304 11.0 18.0 0.00 0.00 0.00 56 1010.3
20260905160008 80 302 12.0 19.0 0.00 0.00 0.00 56 1010.4
20260905154504 80 315 10.0 17.0 0.00 0.00 0.00 57 1010.5
20260905153100 79 315 12.0 18.0 0.00 0.00 0.00 58 1010.5
20260905151558 79 300 12.0 16.0 0.00 0.00 0.00 58 1010.6
20260905150056 78 325 10.0 13.0 0.00 0.00 0.00 59 1010.5
20260905144556 78 327 8.0 11.0 0.00 0.00 0.00 60 1010.5
20260905143052 78 302 6.0 11.0 0.00 0.00 0.00 60 1010.5
20260905141552 77 297 7.0 11.0 0.00 0.00 0.00 61 1010.5
20260905140058 77 332 7.0 11.0 0.00 0.00 0.00 61 1010.4
20260905134557 77 310 4.0 11.0 0.00 0.00 0.00 61 1010.4
20260905133048 76 305 7.0 13.0 0.00 0.00 0.00 63 1010.1
20260905131541 76 322 6.0 11.0 0.00 0.00 0.00 64 1009.9
20260905130036 76 315 6.0 11.0 0.00 0.00 0.00 62 1009.6
20260905124534 76 331 7.0 12.0 0.00 0.00 0.00 63 1009.3
20260905123031 76 319 7.0 12.0 0.00 0.00 0.00 63 1009.1
20260905121529 76 337 6.0 14.0 0.00 0.00 0.00 63 1009.1
20260905120036 77 324 6.0 11.0 0.00 0.00 0.00 61 1009.0
20260905114524 78 295 8.0 14.0 0.00 0.02 0.00 60 1009.0
20260905113023 78 309 9.0 13.0 0.00 0.02 0.00 60 1008.9
20260905111530 77 311 6.0 11.0 0.00 0.02 0.00 62 1008.9
20260905110021 78 329 6.0 10.0 0.00 0.02 0.00 60 1008.9
20260905104516 78 302 5.0 14.0 0.00 0.02 0.00 59 1008.9
20260905103022 78 308 8.0 11.0 0.00 0.02 0.00 59 1008.9
20260905101513 79 257 10.0 16.0 0.00 0.02 0.00 59 1008.8
20260905100011 78 254 7.0 15.0 0.00 0.02 0.00 59 1008.6
20260905094510 78 235 8.0 20.0 0.00 0.02 0.00 60 1008.5
20260905093010 79 263 11.0 18.0 0.00 0.02 0.00 59 1008.2
20260905091507 79 294 12.0 19.0 0.00 0.02 0.00 58 1008.1
20260905090007 79 300 11.0 16.0 0.00 0.02 0.00 58 1008.3
20260905084502 79 304 7.0 13.0 0.00 0.02 0.00 59 1008.3
20260905083100 80 315 9.0 13.0 0.00 0.02 0.00 57 1008.4
20260905081600 80 308 7.0 15.0 0.00 0.02 0.00 57 1008.4
20260905080059 80 306 8.0 13.0 0.00 0.02 0.00 57 1008.4
20260905074556 80 297 12.0 15.0 0.00 0.02 0.00 56 1008.4
20260905073055 80 304 14.0 19.0 0.00 0.02 0.00 56 1008.5
20260905071552 81 309 13.0 17.0 0.00 0.02 0.00 56 1008.6
20260905070055 81 303 13.0 19.0 0.00 0.02 0.00 55 1008.8
20260905064602 82 293 11.0 19.0 0.00 0.02 0.00 51 1008.7
20260905063045 83 306 13.0 19.0 0.00 0.02 0.00 50 1008.6
20260905061543 83 296 10.0 15.0 0.00 0.02 0.00 50 1008.4
20260905060041 83 298 10.0 13.0 0.00 0.02 0.00 49 1008.4
20260905054548 84 298 8.0 16.0 0.00 0.02 0.02 49 1008.3
20260905053038 84 298 10.0 14.0 0.00 0.02 0.02 49 1008.3
20260905051544 84 285 8.0 13.0 0.00 0.02 0.02 48 1008.2
20260905050040 85 279 7.0 10.0 0.00 0.02 0.02 48 1008.1
20260905044538 85 300 6.0 11.0 0.00 0.02 0.02 48 1008.1
20260905043036 85 290 7.0 11.0 0.00 0.02 0.02 47 1008.3
20260905041535 85 284 7.0 11.0 0.00 0.02 0.02 47 1008.3
20260905040036 86 283 6.0 12.0 0.00 0.02 0.02 46 1008.3
20260905034535 87 297 8.0 13.0 0.00 0.02 0.02 44 1008.0
20260905033033 88 268 3.0 11.0 0.00 0.02 0.02 41 1007.8
20260905031536 88 243 2.0 4.0 0.00 0.02 0.02 40 1007.6
20260905030031 89 243 1.0 3.0 0.00 0.02 0.02 40 1007.5
20260905024531 89 244 2.0 4.0 0.00 0.02 0.02 40 1007.3
20260905023031 89 246 2.0 4.0 0.00 0.02 0.02 39 1007.0
20260905021538 89 250 2.0 3.0 0.00 0.02 0.02 39 1007.0
20260905020030 90 252 2.0 6.0 0.00 0.02 0.02 38 1006.9
20260905014538 90 267 2.0 8.0 0.00 0.02 0.02 37 1006.8
20260905013029 90 266 5.0 9.0 0.00 0.02 0.02 37 1006.7
20260905011529 91 284 2.0 5.0 0.00 0.02 0.02 36 1006.7
20260905010031 90 292 2.0 7.0 0.00 0.02 0.02 37 1006.6
20260905004530 90 180 2.0 6.0 0.00 0.02 0.02 37 1006.5
20260905003034 91 229 6.0 11.0 0.00 0.02 0.02 37 1006.5
20260905001522 91 238 2.0 8.0 0.00 0.02 0.02 37 1006.5
20260905000021 90 261 1.0 10.0 0.00 0.02 0.02 39 1006.4
20260904234519 91 286 4.0 10.0 0.00 0.02 0.02 38 1006.3
20260904233023 91 296 8.0 13.0 0.00 0.02 0.02 38 1006.4
20260904231516 91 297 7.0 10.0 0.00 0.02 0.02 37 1006.4
20260904230013 90 187 2.0 10.0 0.00 0.02 0.02 39 1006.4
20260904224510 91 263 2.0 8.0 0.00 0.02 0.02 38 1006.5
20260904223008 90 248 7.0 14.0 0.00 0.02 0.02 39 1006.7
20260904221517 89 325 6.0 14.0 0.00 0.02 0.02 40 1006.8
20260904220004 90 295 9.0 15.0 0.00 0.02 0.02 40 1006.8
20260904214504 89 255 9.0 19.0 0.00 0.02 0.02 42 1006.8
20260904213008 88 283 7.0 11.0 0.00 0.02 0.02 42 1007.1
20260904211502 90 286 4.0 12.0 0.00 0.02 0.02 41 1007.1
20260904204556 89 258 3.0 10.0 0.00 0.02 0.02 43 1007.7
20260904203052 87 298 3.0 14.0 0.00 0.02 0.02 47 1007.9
20260904201552 86 306 3.0 9.0 0.00 0.02 0.02 48 1008.2
20260904200108 85 297 8.0 13.0 0.00 0.02 0.02 49 1008.4